Weather reports worldwide

Advertisment
Lentran, United Kingdom (99125): temperature & dewpoint: 22.02.2017 14:00:00 - 28.02.2017 14:00:00 (GMT)Lentran, United Kingdom (99125): precipitation: 22.02.2017 14:00:00 - 28.02.2017 14:00:00 (GMT)
Date & Time tt [°C] td [°C] rr [mm]
28.02.2017 14:00:00 5,1 -0,6 0,0
28.02.2017 13:00:00 4,9 -0,8 0,0
28.02.2017 12:00:00 4,2 0,3 0,2
28.02.2017 11:00:00 0,9 -0,4 0,0
28.02.2017 10:00:00 -2,4 -2,7 0,0
28.02.2017 09:00:00 -3,2 -3,6 0,0
28.02.2017 08:00:00 -3,4 -3,6 0,0
28.02.2017 07:00:00 -3,2 -3,4 0,0
28.02.2017 06:00:00 -3,3 -3,8 0,0
28.02.2017 05:00:00 -2,8 -3,6 0,0
28.02.2017 04:00:00 -2,3 -3,8 0,0
28.02.2017 03:00:00 -1,7 -3,1 0,0
28.02.2017 02:00:00 -1,0 -2,7 0,0
28.02.2017 01:00:00 -1,1 -2,9 0,0
28.02.2017 00:00:00 -0,8 -2,5 0,0
27.02.2017 23:00:00 -1,0 -2,8 0,0
27.02.2017 22:00:00 -1,9 -2,9 0,0
27.02.2017 21:00:00 -2,1 -3,0 0,0
27.02.2017 20:00:00 -0,8 -2,4 0,0
27.02.2017 19:00:00 -0,5 -2,2 0,0
27.02.2017 18:00:00 0,1 -2,1 0,0
27.02.2017 17:00:00 3,0 -1,5 0,0
27.02.2017 16:00:00 3,7 -1,6 0,0
27.02.2017 15:00:00 4,0 -1,7 0,0
27.02.2017 14:00:00 4,5 -1,4 0,0
27.02.2017 13:00:00 4,7 -1,2 0,0
27.02.2017 12:00:00 4,1 -0,9 0,0
27.02.2017 11:00:00 3,6 -0,4 0,2
27.02.2017 10:00:00 0,8 -0,6 0,0
27.02.2017 09:00:00 -0,6 -1,4 0,0
27.02.2017 08:00:00 -1,0 -1,6 0,0
27.02.2017 07:00:00 -0,1 -2,0 0,0
27.02.2017 06:00:00 -0,4 -1,7 0,0
27.02.2017 05:00:00 0,2 -1,5 0,0
27.02.2017 04:00:00 0,6 -1,2 0,0
27.02.2017 03:00:00 0,6 -1,4 0,0
27.02.2017 02:00:00 0,9 0,0 0,0
27.02.2017 01:00:00 0,7 -0,7 0,0
27.02.2017 00:00:00 1,3 -0,2 0,0
26.02.2017 23:00:00 1,4 0,4 0,0
26.02.2017 22:00:00 1,4 0,5 0,8
26.02.2017 21:00:00 2,5 1,1 0,0
26.02.2017 20:00:00 2,4 1,2 0,0
26.02.2017 19:00:00 2,8 2,2 0,0
26.02.2017 18:00:00 4,0 3,0 0,0
26.02.2017 17:00:00 5,4 4,8 1,8
26.02.2017 16:00:00 5,9 5,4 1,6
26.02.2017 15:00:00 6,2 5,2 0,4
26.02.2017 14:00:00 6,8 4,3 0,0
26.02.2017 13:00:00 6,8 4,3 0,0
26.02.2017 12:00:00 6,5 3,9 0,0
26.02.2017 11:00:00 5,4 3,7 0,2
26.02.2017 10:00:00 5,1 3,4 0,0
26.02.2017 09:00:00 4,3 2,3 0,0
26.02.2017 08:00:00 4,6 2,5 0,0
26.02.2017 07:00:00 4,6 2,0 0,0
26.02.2017 06:00:00 4,6 2,0 0,0
26.02.2017 05:00:00 4,2 2,0 0,0
26.02.2017 04:00:00 3,0 1,8 0,0
26.02.2017 03:00:00 3,2 1,4 0,0
26.02.2017 02:00:00 4,1 2,0 0,0
26.02.2017 01:00:00 4,4 2,0 0,0
26.02.2017 00:00:00 4,5 1,9 0,0
25.02.2017 23:00:00 3,7 2,1 0,0
25.02.2017 22:00:00 4,3 2,3 0,0
25.02.2017 21:00:00 4,3 2,5 0,0
25.02.2017 20:00:00 3,6 2,5 0,0
25.02.2017 19:00:00 4,0 2,1 0,0
25.02.2017 18:00:00 5,5 2,0 0,0
25.02.2017 17:00:00 6,3 2,3 0,0
25.02.2017 16:00:00 7,0 2,1 0,0
25.02.2017 15:00:00 7,6 2,7 0,0
25.02.2017 14:00:00 7,7 3,1 0,0
25.02.2017 13:00:00 8,5 4,4 0,0
25.02.2017 12:00:00 7,3 5,8 0,0
25.02.2017 11:00:00 8,0 6,8 0,8
25.02.2017 10:00:00 8,7 7,9 0,8
25.02.2017 09:00:00 8,1 7,1 0,6
25.02.2017 08:00:00 8,0 7,0 1,8
25.02.2017 07:00:00 8,0 6,5 0,2
25.02.2017 06:00:00 8,4 5,9 0,0
25.02.2017 05:00:00 8,1 6,0 0,0
25.02.2017 04:00:00 7,6 5,6 0,0
25.02.2017 03:00:00 7,3 5,3 0,0
25.02.2017 02:00:00 6,4 4,9 0,0
25.02.2017 01:00:00 5,9 4,5 0,0
25.02.2017 00:00:00 4,9 4,0 0,0
24.02.2017 23:00:00 4,2 3,1 0,0
24.02.2017 22:00:00 3,9 2,2 0,0
24.02.2017 21:00:00 3,4 1,7 0,0
24.02.2017 20:00:00 3,1 1,6 0,0
24.02.2017 19:00:00 2,5 1,6 0,4
24.02.2017 18:00:00 2,5 1,4 0,4
24.02.2017 17:00:00 2,5 1,2 0,2
24.02.2017 16:00:00 2,7 1,4 0,0
24.02.2017 15:00:00 3,2 1,5 0,0
24.02.2017 14:00:00 3,2 2,0 0,0
24.02.2017 13:00:00 3,3 1,9 0,0
24.02.2017 12:00:00 2,6 1,8 1,4
24.02.2017 11:00:00 1,9 1,9 0,8
24.02.2017 10:00:00 0,7 0,7 0,8
24.02.2017 09:00:00 0,2 0,2 0,0
24.02.2017 08:00:00 -0,4 -0,4 0,0
24.02.2017 07:00:00 -0,2 -0,2 0,0
24.02.2017 06:00:00 -0,2 -0,2 0,0
24.02.2017 05:00:00 0,0 0,0 0,0
24.02.2017 04:00:00 0,2 0,2 0,0
24.02.2017 03:00:00 0,0 0,0 0,0
24.02.2017 02:00:00 0,2 0,2 0,0
24.02.2017 01:00:00 0,2 0,2 0,2
24.02.2017 00:00:00 0,2 0,2 0,0
23.02.2017 23:00:00 0,2 0,2 0,0
23.02.2017 22:00:00 0,2 0,2 0,2
23.02.2017 21:00:00 0,3 0,3 0,2
23.02.2017 20:00:00 0,3 0,3 0,2
23.02.2017 19:00:00 0,4 0,4 0,4
23.02.2017 18:00:00 0,6 0,5 0,4
23.02.2017 17:00:00 0,7 0,6 0,8
23.02.2017 16:00:00 0,8 0,6 2,0
23.02.2017 15:00:00 1,2 1,0 2,4
23.02.2017 14:00:00 0,7 0,6 1,4
23.02.2017 13:00:00 0,4 0,4 0,4
23.02.2017 12:00:00 0,2 0,2 0,4
23.02.2017 11:00:00 0,1 0,1 0,2
23.02.2017 10:00:00 0,3 0,3 1,2
23.02.2017 09:00:00 1,0 1,0 0,8
23.02.2017 08:00:00 0,5 0,5 0,4
23.02.2017 07:00:00 0,3 0,2 0,4
23.02.2017 06:00:00 0,7 0,6 0,6
23.02.2017 05:00:00 0,8 0,4 0,8
23.02.2017 04:00:00 1,2 1,0 0,0
23.02.2017 03:00:00 0,5 0,2 0,0
23.02.2017 02:00:00 0,6 0,3 0,0
23.02.2017 01:00:00 0,7 0,6 0,0
23.02.2017 00:00:00 0,9 0,7 0,0
22.02.2017 23:00:00 0,8 0,2 0,0
22.02.2017 22:00:00 0,6 -0,2 0,0
22.02.2017 21:00:00 1,7 0,3 0,0
22.02.2017 20:00:00 2,2 0,3 0,0
22.02.2017 19:00:00 3,0 0,2 0,0
22.02.2017 18:00:00 3,3 0,6 0,2
22.02.2017 17:00:00 3,5 2,1 0,6
22.02.2017 16:00:00 4,7 1,7 0,0
22.02.2017 15:00:00 4,0 2,1 0,0
22.02.2017 14:00:00 4,0 2,5 0,4

tt = temperature
td = dewpoint
rr = precipitation

Next stations